Regional Weather Roundup
Issued by NWS Albany, NY

Home | Current Version | Previous Version | Text Only | Print | Product List | Glossary On
Versions: 1 2 3 4 5 6 7 8 9 10 11 12 13 14 15 16 17 18 19 20 21 22 23 24 25 26 27
000
ASUS41 KALY 031910
RWRALY

NEW YORK STATE HOURLY WEATHER ROUNDUP
NATIONAL WEATHER SERVICE ALBANY NY
200 PM EST SAT DEC 03 2016

NOTE: "FAIR" INDICATES FEW OR NO CLOUDS BELOW 12,000 FEET WITH NO
SIGNIFICANT WEATHER AND/OR NO OBSTRUCTIONS TO VISIBILITY.

NYZ032-033-038>043-046>054-057>066-NYZ062>081-082-084-032000-
EAST


CITY           SKY/WX    TMP DP  RH WIND       PRES   REMARKS
ALBANY         PTSUNNY   40  24  53 NW20G28   30.01S WCI  30
GLENS FALLS    CLOUDY    40  24  53 W5        29.99S
POUGHKEEPSIE   PTSUNNY   44  26  49 NW9       30.00S
NEWBURGH       PTSUNNY   43  28  56 NW24G32   30.02S
MONTGOMERY     PTSUNNY   44  26  49 NW16G25   30.02R
WHITE PLAINS   PTSUNNY   45  25  45 NW21G32   29.99S
ISLIP          MOSUNNY   48  27  44 NW17G28   29.98F
NEW YORK CITY  PTSUNNY   49  27  42 NW20      30.02F
CENTRAL PARK   MOSUNNY   47  24  40 NW14G26   30.04F
$$

NYZ005>009-017-018-044>046-055-056-032000-
CENTRAL


CITY           SKY/WX    TMP DP  RH WIND       PRES   REMARKS
FULTON         CLOUDY    38  29  70 NW9       30.09S WCI  31
SYRACUSE       FLURRIES  36  31  82 W16       30.08F WCI  26
ROME           CLOUDY    35  32  88 W13       30.08S WCI  26
ELMIRA         CLOUDY    40  28  62 NW9       30.09F WCI  34
BINGHAMTON     LGT SNOW  32  31  96 NW13      30.03F FOG     WCI  22
MONTICELLO     CLOUDY    37  25  60 W17G26    30.01S WCI  28
$$

NYZ026>034-041>043-087-032000-
NORTH


CITY           SKY/WX    TMP DP  RH WIND       PRES   REMARKS
WATERTOWN      CLOUDY    37  25  61 NW9       30.08S WCI  30
FORT DRUM      NOT AVBL
OGDENSBURG     CLOUDY    37  26  63 NW12      30.05S WCI  30
MASSENA        CLOUDY    37  23  56 NW10G20   30.05R WCI  30
SARANAC LAKE   LGT SNOW  28  24  85 NW6       29.94R FOG     WCI  22
PLATTSBURGH    CLOUDY    37  25  61 NW13G21   29.99R WCI  29
$$

NYZ001>004-010>016-019>021-085-032000-
WEST


CITY           SKY/WX    TMP DP  RH WIND       PRES   REMARKS
NIAGARA FALLS  PTSUNNY   43  28  55 NW15G23   30.15F
BUFFALO        PTSUNNY   40  28  62 NW13      30.14F WCI  32
DUNKIRK        CLOUDY    41  33  73 NW15G24   30.17S
JAMESTOWN      CLOUDY    36  30  80 W12G20    30.14R WCI  27
WELLSVILLE     CLOUDY    36  29  75 NW14G24   30.08F WCI  27
ROCHESTER      LGT RAIN  39  32  76 NW10      30.12S WCI  32
PENN YAN       CLOUDY    38  31  76 NW7       30.10F WCI  33
$$

             KEY
       WCI = WIND CHILL INDEX
       VSB = VISIBILITY
       HX  = HEAT INDEX
$$




USA.gov is the U.S. government's official web portal to all federal, state and local government web resources and services.